Location: La Sioule Rivi�re
(46.3664°N, 3.3197°E)
Time: 13:07:24
(UTC+00:00)

ERS-2 - Pass Details

Date: 29 October 2020
Orbit: 493 x 498 km, 98.6° (Epoch: 23 November)

Event Time Altitude Azimuth Distance (km) Brightness Sun altitude
Rises 17:11:53 0° 17° (NNE) 2,587 5.5 -6.8°
Reaches altitude 10° 17:14:00 10° 21° (NNE) 1,700 4.5 -7.1°
Maximum altitude 17:17:36 60° 102° (ESE) 573 2.1 -7.7°
Drops below altitude 10° 17:21:11 10° 183° (S) 1,687 5.0 -8.4°
Sets 17:23:16 0° 187° (S) 2,565 6.0 -8.7°
